sat.trackr.live / text

‹ back to catalog

APRIZESAT 10

NORAD 40019 · 2014-033K

PAYLOAD ACTIVE UNKNOWN

§ Identity

Operator
Country
US
Launch date
2014-06-19
Launch site
DLS
Launch vehicle
Mass (kg)
RCS (m²)
0.13

Purposes: tech_demo

External: N2YO · Heavens-Above · Gunter

§ Orbital elements

Epoch: 2026-05-24T22:18:08.616096Z

Period
97.90 min
Inclination
97.9619°
Eccentricity
0.0078489
Mean motion
14.70859550 rev/d
Perigee alt
603.1 km
Apogee alt
713.6 km
Semi-major
7,036.5 km
B*
5.6018e-5
RAAN
272.4118°
Arg perigee
349.0660°
Mean anomaly
10.8837°
Rev number
63,883

§ Raw data

APRIZESAT 101 40019U 14033K   26144.92926639  .00000306  00000+0  56018-4 0  99902 40019  97.9619 272.4118 0078489 349.0660  10.8837 14.70859550638835

JSON: /api/v1/satellites/40019 · /tle

For live sub-satellite position, see the globe view (requires WebGL).

§ Visibility from observer

Set your observer location to see the next 7 days of passes ≥ 10°. The values pass through the URL so the page stays shareable.

No JS? Fill the form by hand. The geolocation button needs JavaScript.

§ Radio — SatNOGS DB

ModeDescriptionDownlinkUplink
GMSK GMSK 9600 400.573 MHz

1 transmitter · refreshed weekly from db.satnogs.org